TimeCST,TemperatureF,Dew PointF,Humidity,Sea Level PressureIn,VisibilityMPH,Wind Direction,Wind SpeedMPH,Gust SpeedMPH,PrecipitationIn,Events,Conditions,WindDirDegrees,DateUTC
12:13 AM,17.6,17.6,100,29.78,1.2,Calm,Calm,-,N/A,,Overcast,0,2012-12-17 06:13:00
12:34 AM,17.6,17.6,100,29.78,0.8,NW,3.5,-,N/A,,Overcast,310,2012-12-17 06:34:00
12:53 AM,17.6,17.6,100,29.78,0.5,Calm,Calm,-,N/A,Fog,Light Freezing Fog,0,2012-12-17 06:53:00
1:13 AM,17.6,17.6,100,29.78,0.8,Calm,Calm,-,N/A,,Overcast,0,2012-12-17 07:13:00
1:34 AM,17.6,17.6,100,29.77,0.8,Calm,Calm,-,N/A,,Overcast,0,2012-12-17 07:34:00
1:53 AM,17.6,17.6,100,29.77,0.5,WNW,3.5,-,N/A,Fog,Light Freezing Fog,300,2012-12-17 07:53:00
2:13 AM,17.6,15.8,93,29.76,0.5,Calm,Calm,-,N/A,Fog,Light Freezing Fog,0,2012-12-17 08:13:00
2:34 AM,17.6,15.8,93,29.76,0.5,Calm,Calm,-,N/A,Fog,Light Freezing Fog,0,2012-12-17 08:34:00
2:53 AM,17.6,17.6,100,29.75,0.5,Calm,Calm,-,N/A,Fog,Light Freezing Fog,0,2012-12-17 08:53:00
3:13 AM,17.6,17.6,100,29.76,0.5,Calm,Calm,-,N/A,Fog,Light Freezing Fog,0,2012-12-17 09:13:00
3:34 AM,17.6,17.6,100,29.76,0.5,Calm,Calm,-,N/A,Fog,Light Freezing Fog,0,2012-12-17 09:34:00
3:53 AM,17.6,15.8,93,29.75,0.8,Calm,Calm,-,N/A,,Overcast,0,2012-12-17 09:53:00
4:13 AM,17.6,17.6,100,29.75,0.8,Calm,Calm,-,N/A,,Overcast,0,2012-12-17 10:13:00
4:34 AM,17.6,15.8,93,29.75,0.8,Calm,Calm,-,N/A,,Overcast,0,2012-12-17 10:34:00
4:53 AM,17.6,15.8,93,29.74,0.8,Calm,Calm,-,N/A,,Overcast,0,2012-12-17 10:53:00
5:13 AM,17.6,15.8,93,29.74,0.8,Calm,Calm,-,N/A,,Overcast,0,2012-12-17 11:13:00
5:34 AM,17.6,15.8,93,29.73,0.8,Calm,Calm,-,N/A,,Overcast,0,2012-12-17 11:34:00
5:53 AM,17.6,15.8,93,29.73,1.5,Calm,Calm,-,N/A,,Overcast,0,2012-12-17 11:53:00
6:13 AM,17.6,15.8,93,29.72,1.2,ENE,3.5,-,N/A,,Overcast,60,2012-12-17 12:13:00
6:33 AM,17.6,15.8,93,29.73,2.5,Calm,Calm,-,N/A,,Overcast,0,2012-12-17 12:33:00
6:53 AM,17.6,15.8,93,29.73,2.0,Calm,Calm,-,N/A,,Overcast,0,2012-12-17 12:53:00
7:14 AM,17.6,15.8,93,29.73,1.5,Calm,Calm,-,N/A,,Overcast,0,2012-12-17 13:14:00
7:53 AM,17.6,15.8,93,29.74,1.0,Calm,Calm,-,N/A,,Overcast,0,2012-12-17 13:53:00
8:14 AM,17.6,15.8,93,29.74,0.8,Calm,Calm,-,N/A,,Overcast,0,2012-12-17 14:14:00
8:33 AM,17.6,15.8,93,29.74,0.5,Calm,Calm,-,N/A,Fog,Light Freezing Fog,0,2012-12-17 14:33:00
8:53 AM,17.6,15.8,93,29.74,1.0,Calm,Calm,-,N/A,,Overcast,0,2012-12-17 14:53:00
9:14 AM,17.6,15.8,93,29.74,0.5,Calm,Calm,-,N/A,Fog,Light Freezing Fog,0,2012-12-17 15:14:00
9:33 AM,17.6,15.8,93,29.74,0.8,Calm,Calm,-,N/A,,Overcast,0,2012-12-17 15:33:00
9:53 AM,17.6,15.8,93,29.74,0.5,Calm,Calm,-,N/A,Fog,Light Freezing Fog,0,2012-12-17 15:53:00
10:14 AM,17.6,15.8,93,29.73,0.5,ESE,3.5,-,N/A,Fog,Light Freezing Fog,120,2012-12-17 16:14:00
10:33 AM,17.6,15.8,93,29.73,0.2,Calm,Calm,-,N/A,Fog,Light Freezing Fog,0,2012-12-17 16:33:00
10:53 AM,17.6,17.6,100,29.73,0.2,Calm,Calm,-,N/A,Fog,Light Freezing Fog,0,2012-12-17 16:53:00
11:13 AM,17.6,17.6,100,29.72,0.2,Calm,Calm,-,N/A,Fog,Light Freezing Fog,0,2012-12-17 17:13:00
11:33 AM,19.4,17.6,93,29.71,0.8,Calm,Calm,-,N/A,,Overcast,0,2012-12-17 17:33:00
11:53 AM,19.4,17.6,93,29.71,1.8,Calm,Calm,-,N/A,,Overcast,0,2012-12-17 17:53:00
12:13 PM,19.4,17.6,93,29.70,3.0,Calm,Calm,-,N/A,,Overcast,0,2012-12-17 18:13:00
12:33 PM,19.4,17.6,93,29.70,4.0,Calm,Calm,-,N/A,,Overcast,0,2012-12-17 18:33:00
12:54 PM,19.4,17.6,93,29.69,10.0,Calm,Calm,-,N/A,,Overcast,0,2012-12-17 18:54:00
1:13 PM,19.4,17.6,93,29.68,7.0,Calm,Calm,-,N/A,,Overcast,0,2012-12-17 19:13:00
1:33 PM,19.4,17.6,93,29.67,5.0,Calm,Calm,-,N/A,,Overcast,0,2012-12-17 19:33:00
1:54 PM,19.4,17.6,93,29.66,7.0,East,3.5,-,N/A,,Overcast,100,2012-12-17 19:54:00
2:13 PM,19.4,17.6,93,29.66,5.0,Calm,Calm,-,N/A,,Overcast,0,2012-12-17 20:13:00
2:33 PM,19.4,17.6,93,29.66,7.0,Calm,Calm,-,N/A,,Overcast,0,2012-12-17 20:33:00
2:54 PM,19.4,17.6,93,29.67,7.0,Calm,Calm,-,N/A,,Overcast,0,2012-12-17 20:54:00
3:13 PM,19.4,17.6,93,29.66,7.0,Calm,Calm,-,N/A,,Overcast,0,2012-12-17 21:13:00
3:33 PM,19.4,17.6,93,29.66,7.0,Calm,Calm,-,N/A,,Overcast,0,2012-12-17 21:33:00
3:54 PM,19.4,17.6,93,29.66,7.0,Calm,Calm,-,N/A,,Overcast,0,2012-12-17 21:54:00
6:33 PM,17.6,17.6,100,29.66,5.0,East,3.5,-,N/A,Snow,Light Snow,100,2012-12-18 00:33:00
6:54 PM,19.4,17.6,93,29.66,5.0,East,4.6,-,N/A,,Overcast,100,2012-12-18 00:54:00
7:13 PM,19.4,17.6,93,29.66,5.0,East,3.5,-,N/A,,Overcast,100,2012-12-18 01:13:00
7:33 PM,19.4,17.6,93,29.66,5.0,East,4.6,-,N/A,,Overcast,90,2012-12-18 01:33:00
7:54 PM,19.4,17.6,93,29.66,5.0,East,3.5,-,N/A,Snow,Light Snow,100,2012-12-18 01:54:00
8:13 PM,19.4,17.6,93,29.66,4.0,East,4.6,-,N/A,Snow,Light Snow,100,2012-12-18 02:13:00
8:34 PM,19.4,17.6,93,29.65,4.0,East,4.6,-,N/A,Snow,Light Snow,100,2012-12-18 02:34:00
8:53 PM,19.4,19.4,100,29.65,4.0,East,4.6,-,N/A,Snow,Light Snow,100,2012-12-18 02:53:00
9:13 PM,19.4,19.4,100,29.65,5.0,ESE,3.5,-,N/A,Snow,Light Snow,120,2012-12-18 03:13:00
9:34 PM,19.4,19.4,100,29.66,5.0,ESE,3.5,-,N/A,Snow,Light Snow,120,2012-12-18 03:34:00
9:53 PM,19.4,19.4,100,29.66,4.0,ESE,3.5,-,N/A,Snow,Light Snow,120,2012-12-18 03:53:00
10:13 PM,21.2,19.4,93,29.66,4.0,SE,4.6,-,N/A,Snow,Light Snow,130,2012-12-18 04:13:00
10:34 PM,21.2,19.4,93,29.65,3.0,SE,3.5,-,N/A,Snow,Light Snow,140,2012-12-18 04:34:00
10:53 PM,21.2,19.4,93,29.65,4.0,SE,3.5,-,N/A,Snow,Light Snow,140,2012-12-18 04:53:00
11:13 PM,21.2,19.4,93,29.65,4.0,Calm,Calm,-,N/A,,Overcast,0,2012-12-18 05:13:00
11:34 PM,21.2,19.4,93,29.65,5.0,SE,3.5,-,N/A,,Overcast,140,2012-12-18 05:34:00
11:53 PM,21.2,19.4,93,29.64,4.0,Calm,Calm,-,N/A,,Overcast,0,2012-12-18 05:53:00